Weather in Sivaki

Russia / Amur Oblast     52°38′05″N   126°44′55″E
temp.,
°C
wind,
m/s
gust,
m/s
humid.,
%
clouds,
%
prec.,
mm/h
press.,
hPa
HPBL,
m
26 february, fri
fri2600:00−23w339882 0.0 102923
03:00−24wnw3310077 0.0 102925
06:00−27nw23974 0.0 103019
09:00−24wnw35922 0.0 1032150
12:00−18wnw34830 0.0 1032387
15:00−15wnw237533 0.0 1031552
18:00−19ese1188100 0.0 103120
21:00−21sse339281 0.0 103224
27 february, sat
sat2700:00−20se3693100 0.0 103199
03:00−19se5993100 0.0 1027234
06:00−17se71389100 0.1 1024484
09:00−17se81494100 1.3 1020585
12:00−15se71294100 3.5 1016726
15:00−13se6993100 5.6 1011700
18:00−13ssw0096100 1.0 101220
21:00−16nw4797100 1.1 1015132
28 february, sun
sun2800:00−21wnw5109766 0.0 1018184
03:00−23wnw6129233 0.0 1020230
06:00−24wnw613850 0.0 1024273
09:00−22wnw814740 0.0 1026696
12:00−18nw912700 0.0 10281065
15:00−17nw812694 0.0 10281298
18:00−20wnw611779 0.0 1031279
21:00−23nw59775 0.0 1033189
1 march, mon
mon100:00−27nw33820 0.0 103323
03:00−29w348227 0.0 103440
06:00−30wnw478360 0.0 103484
09:00−27wnw597730 0.0 1035237
12:00−20nw69630 0.0 10341063
15:00−18wnw58644 0.0 10321573
18:00−21nw2289100 0.0 103220
21:00−26nw228569 0.0 103320
2 march, tue
tue200:00−29ssw11890 0.0 103219
03:00−30se11880 0.0 103119
06:00−30ese12907 0.0 103119
09:00−26ese23934 0.0 103097
12:00−20ese348777 0.0 1027418
15:00−17ese578788 0.0 1025723
18:00−18se4796100 0.2 1023314
21:00−20se5997100 0.3 1022284